Change the Weather History Date:

Friday, September 12, 2014

  Actual Average Record
Temperature  
Mean Temperature 62 °F -  
Max Temperature 70 °F 70 °F 82 °F (1971)
Min Temperature 53 °F 55 °F 45 °F (1966)
Degree Days  
Heating Degree Days 3    
Growing Degree Days 12 (Base 50)    
Moisture  
Dew Point 58 °F    
Average Humidity 76    
Maximum Humidity 94    
Minimum Humidity 57    
Precipitation  
Precipitation 0.00 in - - ()
Sea Level Pressure  
Sea Level Pressure 30.03 in    
Wind  
Wind Speed 12 mph (North)    
Max Wind Speed 21 mph    
Max Gust Speed 25 mph    
Visibility 10 miles    
Events      
Averages and records for this station are not official NWS values.
T = Trace of Precipitation, MM = Missing Value Source: NWS Daily Summary

Daily Weather History Graph

Daily Weather History Graph

Search for Another Location

Airport or City:

Trip Planner

Search our weather history database for the weather conditions in past years. The results will help you decide how hot, cold, wet, or windy it might be!

Date:

Astronomy

Sep. 12, 2014 Rise Set
Actual Time 6:17 AM EDT 6:54 PM EDT
Civil Twilight 5:49 AM EDT 7:22 PM EDT
Nautical Twilight 5:16 AM EDT 7:55 PM EDT
Astronomical Twilight 4:42 AM EDT 8:28 PM EDT
Moon 9:10 PM EDT (9/12) 10:20 AM EDT (9/12)
Length of Visible Light 13h 32m
Length of Day
12h 37m
Waning Gibbous, 83% of the Moon is Illuminated
Sep 12
Waning Gibbous
Sep 15
Last Quarter
Sep 24
New
Oct 1
First Quarter
Oct 8
Full

Hourly Weather History & Observations

Time (EDT) Temp. Dew Point Humidity Pressure Visibility Wind Dir Wind Speed Gust Speed Precip Events Conditions
12:15 AM 69.8 °F 68.0 °F 94% 29.88 in 8.0 mi WSW 10.4 mph - N/A   Overcast
12:53 AM 70.0 °F 68.0 °F 93% 29.89 in 9.0 mi WSW 10.4 mph - N/A   Overcast
1:20 AM 69.8 °F 68.0 °F 94% 29.89 in 8.0 mi West 9.2 mph - N/A   Overcast
1:53 AM 70.0 °F 68.0 °F 93% 29.90 in 7.0 mi West 9.2 mph - N/A   Overcast
2:41 AM 69.8 °F 68.0 °F 94% 29.90 in 9.0 mi NW 9.2 mph - N/A   Scattered Clouds
2:53 AM 70.0 °F 68.0 °F 93% 29.91 in 10.0 mi NW 9.2 mph - N/A   Partly Cloudy
3:53 AM 68.0 °F 60.1 °F 76% 29.92 in 10.0 mi North 15.0 mph - N/A   Clear
4:53 AM 66.0 °F 57.9 °F 75% 29.94 in 10.0 mi NNW 13.8 mph 21.9 mph N/A   Clear
5:53 AM 64.9 °F 57.0 °F 75% 29.96 in 10.0 mi North 12.7 mph - N/A   Clear
6:53 AM 64.9 °F 57.0 °F 75% 29.99 in 10.0 mi NNW 12.7 mph - N/A   Clear
7:53 AM 66.0 °F 55.0 °F 68% 30.01 in 10.0 mi North 18.4 mph - N/A   Clear
8:53 AM 66.9 °F 55.0 °F 66% 30.04 in 10.0 mi North 17.3 mph - N/A   Partly Cloudy
9:53 AM 68.0 °F 55.0 °F 63% 30.05 in 10.0 mi North 19.6 mph 25.3 mph N/A   Partly Cloudy
10:53 AM 66.9 °F 51.1 °F 57% 30.06 in 10.0 mi North 20.7 mph - N/A   Partly Cloudy
11:53 AM 68.0 °F 53.1 °F 59% 30.06 in 10.0 mi North 16.1 mph 23.0 mph N/A   Partly Cloudy
12:53 PM 69.1 °F 55.0 °F 61% 30.07 in 10.0 mi North 13.8 mph - N/A   Clear
1:53 PM 69.1 °F 55.9 °F 63% 30.07 in 10.0 mi NNE 15.0 mph - N/A   Mostly Cloudy
2:53 PM 68.0 °F 55.0 °F 63% 30.08 in 10.0 mi North 13.8 mph - N/A   Overcast
3:53 PM 68.0 °F 55.9 °F 65% 30.09 in 10.0 mi North 15.0 mph - N/A   Overcast
4:27 PM 66.2 °F 55.4 °F 68% 30.10 in 10.0 mi North 15.0 mph - N/A   Mostly Cloudy
4:53 PM 66.0 °F 55.0 °F 68% 30.11 in 10.0 mi NNE 15.0 mph - N/A   Mostly Cloudy
5:53 PM 64.0 °F 53.1 °F 67% 30.12 in 10.0 mi NE 13.8 mph - N/A   Partly Cloudy
6:53 PM 61.0 °F 53.1 °F 75% 30.12 in 10.0 mi NE 9.2 mph - N/A   Clear
7:53 PM 57.0 °F 53.1 °F 87% 30.15 in 10.0 mi NE 6.9 mph - N/A   Clear
8:53 PM 57.0 °F 52.0 °F 83% 30.17 in 10.0 mi ENE 5.8 mph - N/A   Clear
9:53 PM 54.0 °F 51.1 °F 90% 30.18 in 10.0 mi NE 4.6 mph - N/A   Clear
11:53 PM 53.1 °F 51.1 °F 93% 30.20 in 10.0 mi NE 5.8 mph - N/A   Clear